| time (UTC) | temp C | wind direction | speed KPH | gust KPH | rain 1hr cm | rain 24hr cm | rain mn cm | humidity % | barometer mb |
| 20260504021044 | 7 | 173 | 1.6 | 3.2 | 0.00 | 0.00 | 0.00 | 69 | 1007.3 |
| 20260504020044 | 7 | 14 | 9.7 | 11.3 | 0.00 | 0.00 | 0.00 | 68 | 1007.3 |
| 20260504015044 | 7 | 139 | 4.8 | 8.0 | 0.00 | 0.00 | 0.00 | 68 | 1007.5 |
| 20260504014044 | 7 | 254 | 9.7 | 9.7 | 0.00 | 0.00 | 0.00 | 67 | 1007.3 |
| 20260504013044 | 7 | 319 | 1.6 | 9.7 | 0.00 | 0.00 | 0.00 | 67 | 1007.5 |
| 20260504012044 | 7 | 140 | 3.2 | 9.7 | 0.00 | 0.00 | 0.00 | 67 | 1007.4 |
| 20260504011044 | 7 | 201 | 1.6 | 9.7 | 0.00 | 0.00 | 0.00 | 69 | 1007.4 |
| 20260504010044 | 7 | 357 | 3.2 | 6.4 | 0.00 | 0.00 | 0.00 | 70 | 1007.5 |
| 20260504005044 | 6 | 347 | 3.2 | 6.4 | 0.00 | 0.00 | 0.00 | 72 | 1007.8 |
| 20260504004044 | 6 | 40 | 3.2 | 6.4 | 0.00 | 0.00 | 0.00 | 74 | 1007.8 |
| 20260504003044 | 6 | 146 | 3.2 | 8.0 | 0.00 | 0.00 | 0.00 | 74 | 1007.9 |
| 20260504002044 | 6 | 322 | 1.6 | 8.0 | 0.00 | 0.00 | 0.00 | 72 | 1007.6 |
| 20260504001044 | 7 | 210 | 0.0 | 3.2 | 0.00 | 0.00 | 0.00 | 70 | 1007.7 |
| 20260504000044 | 6 | 208 | 0.0 | 3.2 | 0.00 | 0.00 | 0.00 | 71 | 1007.7 |
| 20260503235044 | 6 | 309 | 0.0 | 0.0 | 0.00 | 0.00 | 0.00 | 71 | 1007.9 |
| 20260503234044 | 7 | 188 | 1.6 | 1.6 | 0.00 | 0.00 | 0.00 | 71 | 1007.9 |
| 20260503233044 | 7 | 117 | 0.0 | 3.2 | 0.00 | 0.00 | 0.00 | 71 | 1008.1 |
| 20260503232044 | 7 | 300 | 0.0 | 3.2 | 0.00 | 0.00 | 0.00 | 71 | 1008.0 |
| 20260503231044 | 7 | 119 | 0.0 | 3.2 | 0.00 | 0.00 | 0.00 | 70 | 1008.1 |
| 20260503230044 | 7 | 307 | 0.0 | 3.2 | 0.00 | 0.00 | 0.00 | 70 | 1008.1 |
| 20260503225044 | 7 | 135 | 3.2 | 3.2 | 0.00 | 0.00 | 0.00 | 69 | 1008.1 |
| 20260503224044 | 7 | 120 | 0.0 | 3.2 | 0.00 | 0.00 | 0.00 | 68 | 1008.0 |
| 20260503223044 | 7 | 184 | 0.0 | 3.2 | 0.00 | 0.00 | 0.00 | 68 | 1008.1 |
| 20260503222044 | 7 | 129 | 0.0 | 0.0 | 0.00 | 0.00 | 0.00 | 68 | 1008.3 |
| 20260503221044 | 7 | 283 | 0.0 | 0.0 | 0.00 | 0.00 | 0.00 | 68 | 1008.6 |
| 20260503220057 | 7 | 224 | 0.0 | 0.0 | 0.00 | 0.00 | 0.00 | 69 | 1008.2 |
| 20260503215057 | 7 | 175 | 0.0 | 3.2 | 0.00 | 0.00 | 0.00 | 70 | 1008.3 |
| 20260503214057 | 7 | 44 | 0.0 | 0.0 | 0.00 | 0.00 | 0.00 | 71 | 1008.5 |
| 20260503213057 | 7 | 62 | 0.0 | 0.0 | 0.00 | 0.00 | 0.00 | 71 | 1008.6 |
| 20260503212057 | 7 | 192 | 1.6 | 1.6 | 0.00 | 0.00 | 0.00 | 71 | 1008.7 |
| 20260503211057 | 7 | 38 | 0.0 | 0.0 | 0.00 | 0.00 | 0.00 | 71 | 1008.7 |
| 20260503210057 | 7 | 219 | 0.0 | 0.0 | 0.00 | 0.00 | 0.00 | 70 | 1008.8 |
| 20260503205057 | 8 | 49 | 0.0 | 0.0 | 0.00 | 0.00 | 0.00 | 69 | 1009.0 |
| 20260503204057 | 8 | 186 | 0.0 | 0.0 | 0.00 | 0.00 | 0.00 | 69 | 1008.9 |
| 20260503203057 | 7 | 315 | 0.0 | 0.0 | 0.00 | 0.00 | 0.00 | 67 | 1008.9 |
| 20260503202057 | 8 | 315 | 0.0 | 0.0 | 0.00 | 0.00 | 0.00 | 66 | 1009.2 |
| 20260503201057 | 8 | 322 | 0.0 | 0.0 | 0.00 | 0.00 | 0.00 | 65 | 1009.2 |
| 20260503200057 | 8 | 336 | 0.0 | 0.0 | 0.00 | 0.00 | 0.00 | 67 | 1009.3 |
| 20260503195057 | 8 | 44 | 0.0 | 0.0 | 0.00 | 0.00 | 0.00 | 67 | 1009.3 |
| 20260503194057 | 7 | 33 | 0.0 | 1.6 | 0.00 | 0.00 | 0.00 | 71 | 1009.3 |
| 20260503193057 | 7 | 11 | 0.0 | 0.0 | 0.00 | 0.00 | 0.00 | 76 | 1009.3 |
| 20260503192057 | 8 | 37 | 0.0 | 0.0 | 0.00 | 0.00 | 0.00 | 74 | 1009.4 |
| 20260503191057 | 8 | 157 | 0.0 | 0.0 | 0.00 | 0.00 | 0.00 | 76 | 1009.4 |
| 20260503190057 | 8 | 89 | 0.0 | 0.0 | 0.00 | 0.00 | 0.00 | 74 | 1009.2 |
| 20260503185057 | 8 | 117 | 0.0 | 0.0 | 0.00 | 0.00 | 0.00 | 69 | 1009.4 |
| 20260503184057 | 9 | 117 | 0.0 | 0.0 | 0.00 | 0.00 | 0.00 | 65 | 1009.4 |
| 20260503183057 | 9 | 117 | 0.0 | 0.0 | 0.00 | 0.00 | 0.00 | 62 | 1009.4 |
| 20260503182057 | 10 | 117 | 0.0 | 0.0 | 0.00 | 0.00 | 0.00 | 63 | 1009.3 |
| 20260503181057 | 10 | 0 | 0.0 | 0.0 | 0.00 | 0.00 | 0.00 | 62 | 1009.1 |
| 20260503180057 | 10 | 315 | 0.0 | 0.0 | 0.00 | 0.00 | 0.00 | 56 | 1009.1 |
| 20260503175057 | 11 | 345 | 0.0 | 0.0 | 0.00 | 0.00 | 0.00 | 52 | 1009.2 |
| 20260503174057 | 11 | 37 | 0.0 | 0.0 | 0.00 | 0.00 | 0.00 | 51 | 1009.1 |
| 20260503173057 | 12 | 110 | 0.0 | 0.0 | 0.00 | 0.00 | 0.00 | 50 | 1009.2 |
| 20260503172057 | 12 | 135 | 0.0 | 0.0 | 0.00 | 0.00 | 0.00 | 44 | 1009.2 |
| 20260503171057 | 12 | 199 | 0.0 | 0.0 | 0.00 | 0.00 | 0.00 | 44 | 1009.1 |
| 20260503131057 | 16 | 9 | 4.8 | 8.0 | 0.00 | 0.00 | 0.00 | 35 | 1010.0 |
| 20260503081057 | 12 | 5 | 8.0 | 14.5 | 0.00 | 0.00 | 0.00 | 40 | 1012.8 |
| 20260503072057 | 12 | 79 | 3.2 | 9.7 | 0.00 | 0.00 | 0.00 | 46 | 1012.7 |
| 20260503071057 | 11 | 16 | 12.9 | 16.1 | 0.00 | 0.00 | 0.00 | 50 | 1012.6 |
| 20260503055057 | 10 | 89 | 0.0 | 6.4 | 0.00 | 0.00 | 0.00 | 59 | 1012.7 |
| 20260503054057 | 10 | 39 | 4.8 | 6.4 | 0.00 | 0.00 | 0.00 | 58 | 1012.7 |
| 20260503053057 | 9 | 11 | 3.2 | 6.4 | 0.00 | 0.00 | 0.00 | 61 | 1012.7 |
| 20260503052057 | 9 | 355 | 1.6 | 9.7 | 0.00 | 0.00 | 0.00 | 63 | 1012.4 |
| 20260503051057 | 8 | 128 | 4.8 | 8.0 | 0.00 | 0.00 | 0.00 | 66 | 1012.6 |
| 20260503050057 | 7 | 21 | 4.8 | 12.9 | 0.00 | 0.00 | 0.00 | 68 | 1012.4 |
| 20260503045057 | 7 | 86 | 8.0 | 9.7 | 0.00 | 0.00 | 0.00 | 70 | 1012.5 |
| 20260503044057 | 6 | 21 | 3.2 | 6.4 | 0.00 | 0.00 | 0.00 | 75 | 1012.3 |
| 20260503043057 | 6 | 102 | 3.2 | 6.4 | 0.00 | 0.00 | 0.00 | 77 | 1012.3 |
| 20260503042057 | 5 | 358 | 4.8 | 9.7 | 0.00 | 0.00 | 0.00 | 80 | 1012.2 |
| 20260503041057 | 5 | 36 | 6.4 | 6.4 | 0.00 | 0.00 | 0.00 | 85 | 1012.2 |
| 20260503040057 | 3 | 345 | 1.6 | 6.4 | 0.00 | 0.00 | 0.00 | 93 | 1012.3 |
| 20260503035057 | 2 | 344 | 4.8 | 6.4 | 0.00 | 0.00 | 0.00 | 92 | 1012.1 |
| 20260503034057 | 2 | 41 | 3.2 | 4.8 | 0.00 | 0.00 | 0.00 | 92 | 1011.9 |
| 20260503033057 | 2 | 59 | 3.2 | 6.4 | 0.00 | 0.00 | 0.00 | 91 | 1011.8 |
| 20260503032057 | 2 | 351 | 4.8 | 6.4 | 0.00 | 0.00 | 0.00 | 92 | 1011.8 |
| 20260503031057 | 2 | 9 | 1.6 | 6.4 | 0.00 | 0.00 | 0.00 | 93 | 1012.0 |
| 20260503030057 | 2 | 258 | 3.2 | 4.8 | 0.00 | 0.00 | 0.00 | 92 | 1011.8 |
| 20260503025057 | 2 | 53 | 0.0 | 4.8 | 0.00 | 0.00 | 0.00 | 92 | 1011.7 |
| 20260503024057 | 2 | 62 | 3.2 | 16.1 | 0.00 | 0.00 | 0.00 | 92 | 1011.7 |
| 20260503023057 | 2 | 247 | 3.2 | 8.0 | 0.00 | 0.00 | 0.00 | 91 | 1011.4 |
| 20260503022057 | 2 | 151 | 0.0 | 6.4 | 0.00 | 0.00 | 0.00 | 93 | 1011.5 |